Terminal Aerodrome Forecast
Issued by NWS

Home | Current Version | Previous Version | Text Only | Print | Product List | Glossary On
Versions: 1 2 3 4 5 6 7 8 9 10 11 12 13 14 15 16 17 18 19 20 21 22 23 24 25 26 27 28 29 30
000
FTPA31 PHFO 211700 RRA
TAFMDY
TAF
PMDY 211743Z 2118/2218 01009G15KT P6SM SCT040 BKN060
     FM212300 04012G18KT P6SM FEW030 SCT050
     FM221200 06015G23KT P6SM BKN030 OVC050
      AMD LTD TO CLD AND WIND=

USA.gov is the U.S. government's official web portal to all federal, state and local government web resources and services.